Regional Weather Roundup
Issued by NWS Cleveland, OH

Home | Current Version | Previous Version | Graphics & Text | Print | Product List | Glossary On
Versions: 1 2 3 4 5 6 7 8 9 10 11 12 13 14 15 16 17 18 19 20 21 22 23 24 25 26 27 28 29 30 31 32 33 34 35 36 37 38 39 40 41 42 43 44 45 46 47 48 49 50
000
ASUS41 KCLE 262112
RWRCLE
OHIO REGIONAL WEATHER ROUNDUP
NATIONAL WEATHER SERVICE WILMINGTON, OH
500 PM EDT WED APR 26 2017

NOTE: "FAIR" INDICATES FEW OR NO CLOUDS BELOW 12,000 FEET WITH NO
SIGNIFICANT WEATHER AND/OR OBSTRUCTIONS TO VISIBILITY.

OHZ001>008-015>018-024>027-034-035-043-044-262200-
   NORTHWEST OHIO

CITY           SKY/WX    TMP DP  RH WIND       PRES   REMARKS
DEFIANCE       FAIR      82  58  43 S15G26    29.52F
FINDLAY        FAIR      86  50  28 S23G33    29.54F
TOLEDO EXPRESS FAIR      85  52  32 S13G25    29.52F
TOLEDO EXEC    FAIR      85  54  34 S22G30    29.54S
LIMA           FAIR      82  56  40 S17G26    29.56S
$$

OHZ009>014-019>023-028>033-038-089-262200-
   NORTHEAST OHIO

CITY           SKY/WX    TMP DP  RH WIND       PRES   REMARKS
CLE-HOPKINS    PTSUNNY   81  53  37 S21G28    29.61F
CLE-LAKEFRONT  FAIR      82  54  37 S18G24    29.57F
CUY CO. ARPT   PTSUNNY   81  59  47 S14G23    29.62F
LORAIN-ELYRIA  FAIR      80  52  37 S24G30    29.59F
ASHTABULA      FAIR      76  56  49 S12G23    29.65F
AKRON-CANTON   FAIR      79  56  45 S14       29.65F
WOOSTER        FAIR      78  55  44 S20G25    29.64F
MANSFIELD      FAIR      81  51  35 S17G29    29.62F
YOUNGSTOWN     PTSUNNY   77  55  46 SE14      29.66F
$$

OHZ042-051>053-060>062-070>072-077>081-262200-
  SOUTHWEST OHIO

CITY           SKY/WX    TMP DP  RH WIND       PRES   REMARKS
CINC-COVINGTON FAIR      81  59  47 S16G29    29.60F
CINC-LUNKEN    FAIR      81  63  54 S13G23    29.59F
HAMILTON       FAIR      84  59  42 S13G23    29.60F
DAYTON         FAIR      81  57  43 S21G28    29.59F
WRIGHT-PAT AFB FAIR      83  56  39 S15       29.59F
DAYTON GENERAL FAIR      81  58  45 S13G25    29.59F
WILMINGTON     FAIR      80  56  43 S16G24    29.61F
$$

OHZ036-037-039>041-045>050-054>059-063>069-073>076-082>088-262200-
  CENTRAL AND SOUTHEAST OHIO

CITY           SKY/WX    TMP DP  RH WIND       PRES   REMARKS
COLUMBUS       FAIR      84  50  30 S15G25    29.61F
OSU AIRPORT    FAIR      84  51  31 S17G29    29.60F
BOLTON FIELD   SUNNY     84  52  32 S23G30    29.62F
RICKENBACK AFB FAIR      83  52  34 S21       29.61S
NEWARK         FAIR      84  49  29 S16G23    29.62F
MARION         FAIR      83  48  29 S24G33    29.60F
LANCASTER      FAIR      84  50  30 S16       29.63F
ZANESVILLE     FAIR      82  54  37 S9G18     29.65F
NEW PHILLY     FAIR      82  55  39 S10       29.66F
$$




USA.gov is the U.S. government's official web portal to all federal, state and local government web resources and services.